SKYKRAFT-4C (64897 NORAD) Tracking and Keplerian Element Data

This shows tracking and keplerian element data for the satellite.

Feedback or suggestion? Click here.




ElementValue
Catalog64897
NameSKYKRAFT-4C
Epoch Orbit2063
Epoch Day354.17248377
Epoch Year2025
RAAN57.1841
Inclination97.6949
Eccentricity0.0006341
Argument of Perigee132.2693
Mean Anonmoly227.9066
Mean Motion14.94110008
Decay Rate1.927E-05
L11 64897U 25154J 25354.17248377 .00001927 00000+0 18547-3 0 9995
L22 64897 97.6949 57.1841 0006341 132.2693 227.9066 14.94110008 20637



Live tracking and technical data element details for SKYKRAFT-4C (NORAD 64897). SKYKRAFT-4C can be tracked NOW for your location showing map with azimuth and elevation plus other details from your city location.







IsCatalogInMostPopularTable: catalog: 64897, numindb: 8
Update: records affected: 1



GetName: 64897 SKYKRAFT-4C

Hit Count: updated at: Sat, 11 Apr 2026 21:55:15 GMT